Current weather by "City, St" or "zip code"  
 
Advertise Here

Current Conditions: Chicopee Falls / Westover Air Force Base, MA

Fair


64.0 F

Last Updated on Jul 27 2021, 12:56 am EDT
Humidity: 100%
Wind Speed: N 0.0 mph
Barometer 29.91 in
Dewpoint: 63.9 F
Visibility: 10.00 mi
Precip: --
Heat Index: NA
Wind Chill: NA
Current conditions at:

Chicopee Falls / Westover Air Force Base, MA (KCEF)

Lat: 42.2 Lon: 72.53333

Local Radar Image active severe weather and emergency alerts image image weather storm and storm spotter reports image weather observation monitoring service image
Local
Radar
Active
Alerts
Storm Reports Obs
Monitoring

Sign-up For Email & Text Message Weather Alert Notification Services


Advertise Here

Observation History for Chicopee Falls / Westover Air Force Base, MA


Time Wind
(mph)
Vis
(mi)
Weather Precip (in) Temperature (F) Relative
Humidity
Wind
Chill
(F)
Heat
Index
(F)
Pressure
Air Dwpt altimeter
(in)
sea level
(mb)
Rmks
12:56 am EDT N 0.0 10.00 Fair -- 64.0 63.9 100% NA NA 29.91 1013.3
11:56 pm EDT SE 4.6 10.00 Fair -- 64.0 64.0 99% NA NA 29.90 1013.0
10:56 pm EDT N 0.0 7.00 Fair -- 65.0 65.3 100% NA NA 29.90 1013.0
9:56 pm EDT N 0.0 8.00 Fair -- 69.0 63.5 83% NA NA 29.90 1013.0
8:56 pm EDT N 0.0 8.00 Fair -- 71.0 66.4 84% NA NA 29.88 1012.3
6:56 pm EDT NW 8.1 7.00 A Few Clouds -- 83.0 59.7 45% NA 83 29.85 1011.2
5:56 pm EDT NW 9.2 6.00 A Few Clouds with Haze -- 85.0 59.0 41% NA 84 29.85 1011.2
4:56 pm EDT W 10.4 5.00 A Few Clouds with Haze -- 87.0 60.6 42% NA 87 29.86 1011.6
3:56 pm EDT NW 6.9 3.00 A Few Clouds with Haze -- 87.0 60.8 42% NA 87 29.85 1011.2
1:56 pm EDT W 10.4 2.50 Partly Cloudy with Haze -- 85.0 61.7 45% NA 85 29.87 1011.9
12:56 pm EDT W 9.2 3.00 Partly Cloudy with Haze -- 85.0 61.0 45% NA 85 29.87 1011.9
11:56 am EDT W 8.1 6.00 Partly Cloudy with Haze -- 83.0 65.3 55% NA 85 29.87 1011.9
10:56 am EDT NW 5.8 6.00 Fog/Mist -- 80.0 68.0 67% NA 83 29.88 1012.3
9:56 am EDT S 3.5 3.00 Fog/Mist -- 76.0 68.2 76% NA NA 29.88 1012.3
8:56 am EDT N 0.0 2.50 Fog/Mist -- 71.0 71.1 100% NA NA 29.88 1012.3
7:56 am EDT N 0.0 2.50 Fog/Mist -- 70.0 69.6 100% NA NA 29.88 1012.3
6:58 am EDT N 0.0 1.25 Fog/Mist -- 69.0 68.5 100% NA NA 29.87 1011.9
6:56 am EDT N 0.0 1.00 Fog/Mist -- 69.0 68.5 100% NA NA 29.87 1011.9
5:56 am EDT N 0.0 0.25 Fog -- 69.0 68.9 100% NA NA 29.86 1011.6
3:56 am EDT N 0.0 0.50 Fog -- 69.0 69.1 100% NA NA 29.86 1011.6
2:56 am EDT N 0.0 1.50 Fog/Mist -- 67.0 66.7 100% NA NA 29.86 1011.6

Regional Weather Observation


Chicopee Falls / Westover Air Force Base, MA (KCEF)

Fair
64.0 F

Orange Municipal Airport, MA (KORE)

Fog/Mist
64.0 F

Keene, Dillant-Hopkins Airport, NH (KEEN)

Fog/Mist
63.0 F

North Adams Harriman-and-West Airport, MA (KAQW)

A Few Clouds
63.0 F

Pittsfield Municipal Airport, MA (KPSF)

Fair
60.0 F

Jaffrey Airport-Silver Ranch, NH (KAFN)

Fog/Mist
65.0 F
Advertise Here

Advertise Here